CW5066 Weather Reports


time (UTC)temp
F
wind
direction
speed
knots
gust
knots
rain 1hr
in
rain 24hr
in
rain mn
in
humidity
%
barometer
mb
20260831220536 63 23 0.9 5.2 0.00 0.00 0.00 49 1029.2
20260831215516 63 0 1.7 5.2 0.00 0.00 0.00 46 1029.1
20260831214516 64 315 1.7 3.5 0.00 0.00 0.00 45 1029.8
20260831213516 65 90 0.9 5.2 0.00 0.00 0.00 46 1030.0
20260831212536 64 158 0.9 5.2 0.00 0.00 0.00 47 1029.9
20260831211536 64 113 0.9 4.3 0.00 0.00 0.00 46 1030.0
20260831210516 66 158 2.6 8.7 0.00 0.00 0.00 45 1030.2
20260831205516 66 90 1.7 7.8 0.00 0.00 0.00 46 1030.9
20260831204516 65 113 4.3 12.2 0.00 0.00 0.00 45 1030.2
20260831203536 65 113 3.5 9.6 0.00 0.00 0.00 45 1030.3
20260831202516 64 158 3.5 9.6 0.00 0.00 0.00 43 1030.6
20260831201516 65 158 3.5 7.0 0.00 0.00 0.00 44 1030.7
20260831200516 66 113 6.1 10.4 0.00 0.04 0.00 41 1031.4
20260831195516 68 180 3.5 7.8 0.00 0.07 0.00 39 1032.2
20260831194516 67 0.0 1.7 0.00 0.08 0.00 38 1031.7
20260831193516 66 158 3.5 10.4 0.00 0.08 0.00 39 1031.1
20260831192516 65 180 1.7 7.0 0.00 0.08 0.00 39 1031.2
20260831191515 65 180 3.5 8.7 0.00 0.08 0.00 40 1030.8
20260831190515 65 113 1.7 7.8 0.00 0.08 0.00 41 1031.6
20260831185536 65 90 0.9 3.5 0.00 0.08 0.00 41 1031.7
20260831184536 65 158 0.9 6.1 0.00 0.08 0.00 39 1031.6
20260831183516 65 113 0.9 4.3 0.00 0.08 0.00 39 1031.8
20260831182516 64 113 0.9 2.6 0.00 0.08 0.00 41 1031.2
20260831181515 63 158 2.6 6.1 0.00 0.08 0.00 42 1031.2
20260831180556 63 135 1.7 5.2 0.00 0.08 0.00 43 1031.3
20260831175515 63 135 1.7 7.0 0.00 0.08 0.00 41 1031.3
20260831174515 63 113 0.9 2.6 0.00 0.08 0.00 45 1031.4
20260831173535 63 113 1.7 6.1 0.00 0.08 0.00 42 1031.3
20260831172515 63 225 1.7 4.3 0.00 0.08 0.00 43 1031.4
20260831171515 62 113 0.9 3.5 0.00 0.08 0.00 42 1030.8
20260831170515 62 225 1.7 6.1 0.00 0.08 0.00 41 1031.3
20260831165515 62 338 1.7 3.5 0.00 0.08 0.00 44 1031.4
20260831164555 62 248 0.9 2.6 0.00 0.08 0.00 44 1031.2
20260831163535 61 180 1.7 4.3 0.00 0.08 0.00 43 1031.7
20260831162517 61 225 1.7 3.5 0.00 0.08 0.00 45 1031.8
20260831161517 60 203 2.6 6.1 0.00 0.08 0.00 47 1031.1
20260831160517 60 158 1.7 5.2 0.00 0.08 0.00 49 1030.9
20260831155517 60 180 1.7 3.5 0.00 0.08 0.00 48 1030.9
20260831154517 60 225 0.9 2.6 0.00 0.08 0.00 50 1031.0
20260831153517 59 225 0.9 1.7 0.00 0.08 0.00 48 1031.0
20260831152517 59 158 0.9 2.6 0.00 0.08 0.00 50 1030.9
20260831151517 58 0.0 0.9 0.00 0.08 0.00 54 1030.6
20260831150517 57 0.0 1.7 0.00 0.08 0.00 52 1030.5
20260831145517 57 0.0 0.0 0.00 0.08 0.00 52 1030.6
20260831144517 56 0.0 0.9 0.00 0.08 0.00 53 1030.0
20260831143517 56 203 0.9 1.7 0.00 0.08 0.00 52 1030.6
20260831142517 56 225 0.9 1.7 0.00 0.08 0.00 53 1030.5
20260831141517 56 0.0 1.7 0.00 0.08 0.00 52 1030.5
20260831140517 56 0.0 0.0 0.00 0.08 0.00 52 1030.3
20260831135637 55 158 0.9 1.7 0.00 0.08 0.00 52 1030.2
20260831134517 55 0.0 1.7 0.00 0.08 0.00 53 1030.0
20260831133517 55 0.0 1.7 0.00 0.08 0.00 53 1029.8
20260831132516 54 315 0.9 1.7 0.00 0.08 0.00 54 1029.9
20260831131516 54 0.0 0.0 0.00 0.08 0.00 54 1029.8
20260831130517 54 0.0 0.0 0.00 0.08 0.00 54 1029.8
20260831125517 54 0.0 0.0 0.00 0.08 0.00 54 1029.7
20260831124518 54 0.0 0.9 0.00 0.08 0.00 54 1029.5
20260831123517 54 0.0 0.0 0.00 0.08 0.00 54 1029.9
20260831122536 54 0.0 0.9 0.00 0.08 0.00 54 1029.8
20260831121537 54 0.0 0.0 0.00 0.08 0.00 54 1029.7
20260831120517 54 180 0.9 1.7 0.00 0.08 0.00 54 1029.7
20260831115516 53 0.0 1.7 0.00 0.08 0.00 56 1029.4
20260831114516 53 90 0.9 1.7 0.00 0.08 0.00 56 1029.3
20260831113516 53 0 0.9 0.9 0.00 0.08 0.00 57 1029.5
20260831112516 53 0.0 0.9 0.00 0.08 0.00 57 1029.4
20260831111517 52 0.0 0.9 0.00 0.08 0.00 58 1029.2
20260831110516 52 68 0.9 0.9 0.00 0.08 0.00 59 1028.6
20260831105516 52 68 1.7 1.7 0.00 0.08 0.00 60 1028.7
20260831104517 52 68 0.9 1.7 0.00 0.08 0.00 60 1028.6
20260831103516 52 113 0.9 2.6 0.00 0.08 0.00 61 1027.2
20260831102516 52 90 0.9 1.7 0.00 0.08 0.00 61 1026.8
20260831101516 52 158 0.9 2.6 0.00 0.08 0.00 60 1026.6
20260831100556 52 90 0.9 1.7 0.00 0.08 0.00 61 1026.1
20260831095516 51 113 0.9 1.7 0.00 0.08 0.00 61 1025.8
20260831094516 52 0.0 0.9 0.00 0.08 0.00 61 1025.8
20260831093556 52 180 0.9 2.6 0.00 0.08 0.00 61 1024.6
20260831092516 51 68 0.9 2.6 0.00 0.08 0.00 61 1024.4
20260831091516 52 0.0 1.7 0.00 0.08 0.00 61 1025.0
20260831090516 52 225 0.9 2.6 0.00 0.08 0.00 60 1023.9
20260831085536 52 158 1.7 3.5 0.00 0.08 0.00 61 1023.9
20260831084516 52 180 1.7 3.5 0.00 0.08 0.00 61 1023.9
20260831083516 52 180 2.6 5.2 0.00 0.08 0.00 62 1023.4
20260831082536 52 180 1.7 3.5 0.00 0.08 0.00 62 1023.4
20260831081516 52 225 1.7 2.6 0.00 0.08 0.00 62 1023.5
20260831080536 52 248 1.7 3.5 0.00 0.08 0.00 61 1026.7
20260831075516 52 225 1.7 2.6 0.00 0.08 0.00 60 1026.9
20260831074516 52 0.0 2.6 0.00 0.08 0.00 61 1027.0
20260831073516 52 270 0.9 1.7 0.00 0.08 0.00 61 1028.4
20260831072516 52 225 1.7 2.6 0.00 0.08 0.00 62 1028.4
20260831071516 51 225 2.6 4.3 0.00 0.08 0.00 64 1028.4
20260831070516 51 203 2.6 3.5 0.00 0.08 0.00 63 1029.0
20260831065516 52 203 2.6 3.5 0.00 0.08 0.00 63 1028.9
20260831064515 51 180 1.7 2.6 0.00 0.08 0.00 64 1029.0
20260831063515 51 135 0.9 2.6 0.00 0.08 0.00 66 1029.1
20260831062515 50 135 1.7 2.6 0.00 0.08 0.00 68 1028.6
20260831061515 51 270 0.9 3.5 0.00 0.08 0.00 67 1029.0
20260831060516 51 203 0.9 1.7 0.00 0.08 0.00 67 1029.1
20260831055516 51 248 1.7 2.6 0.00 0.08 0.08 66 1029.2
20260831054516 51 225 0.9 2.6 0.00 0.08 0.08 68 1029.4
20260831053516 51 225 1.7 5.2 0.00 0.08 0.08 68 1029.5
20260831052516 51 225 2.6 5.2 0.00 0.08 0.08 69 1029.6
20260831051516 51 225 5.2 10.4 0.00 0.08 0.08 70 1029.7
20260831050516 52 203 3.5 7.0 0.00 0.08 0.08 70 1029.5
20260831045516 52 225 2.6 7.8 0.00 0.08 0.08 68 1029.5
20260831044516 53 225 7.0 12.2 0.00 0.08 0.08 67 1030.6
20260831043516 53 270 4.3 10.4 0.00 0.08 0.08 66 1030.2
20260831042516 54 270 3.5 8.7 0.00 0.08 0.08 64 1030.2
20260831041516 55 248 3.5 7.8 0.00 0.08 0.08 58 1029.9
20260831040516 55 248 2.6 7.8 0.00 0.08 0.08 58 1029.0
20260831035516 54 248 2.6 5.2 0.00 0.08 0.08 58 1028.1
20260831034516 54 225 1.7 4.3 0.00 0.08 0.08 59 1027.9
20260831033516 55 225 1.7 2.6 0.00 0.08 0.08 57 1027.8
20260831032516 55 203 1.7 3.5 0.00 0.08 0.08 58 1028.0
20260831031516 55 180 0.9 2.6 0.00 0.08 0.08 57 1028.0
20260831030515 55 0.0 1.7 0.00 0.08 0.08 57 1027.9
20260831025516 55 180 0.9 3.5 0.00 0.08 0.08 57 1027.7
20260831024516 55 135 0.9 1.7 0.00 0.08 0.08 57 1027.5
20260831023515 56 0.0 1.7 0.00 0.08 0.08 57 1027.6
20260831022536 56 225 1.7 3.5 0.00 0.08 0.08 56 1028.0
20260831021515 56 225 2.6 3.5 0.00 0.08 0.08 56 1027.6
20260831020515 56 225 2.6 5.2 0.00 0.08 0.08 57 1026.8
20260831015515 56 248 2.6 5.2 0.00 0.08 0.08 56 1026.7
20260831014535 57 225 2.6 5.2 0.00 0.08 0.08 56 1026.8
20260831013515 57 225 2.6 5.2 0.00 0.08 0.08 55 1027.6
20260831012516 57 248 3.5 8.7 0.00 0.08 0.08 54 1027.6
20260831011515 58 225 5.2 10.4 0.00 0.08 0.08 53 1027.8
20260831010515 58 225 6.1 13.0 0.00 0.08 0.08 53 1027.4
20260831005536 58 225 7.8 15.6 0.00 0.08 0.08 52 1027.3
20260831004515 58 203 8.7 14.8 0.00 0.08 0.08 51 1027.4
20260831003535 59 225 10.4 16.5 0.00 0.08 0.08 51 1027.4
20260831002516 59 225 8.7 13.9 0.00 0.08 0.08 50 1028.0
20260831001515 59 225 8.7 19.1 0.00 0.08 0.08 49 1028.1
20260831000515 60 225 9.6 15.6 0.00 0.08 0.08 48 1029.3
20260830235515 60 225 12.2 21.7 0.00 0.08 0.08 48 1029.3
20260830234517 60 225 13.9 20.0 0.00 0.08 0.08 47 1029.0
20260830233517 61 225 14.8 25.2 0.00 0.08 0.08 46 1027.5
20260830232517 62 225 14.8 23.5 0.00 0.08 0.08 45 1027.6
20260830231517 62 225 12.2 19.1 0.00 0.08 0.08 45 1027.4
20260830230517 61 225 12.2 20.0 0.00 0.08 0.08 47 1027.0
20260830225517 61 225 13.9 25.2 0.00 0.08 0.08 47 1026.8
20260830224517 60 225 13.0 19.1 0.00 0.08 0.08 50 1026.9
20260830223517 59 225 13.0 20.9 0.00 0.08 0.08 51 1026.8
20260830222517 58 225 13.9 22.6 0.00 0.08 0.08 54 1027.0
20260830221517 57 225 13.0 23.5 0.00 0.08 0.08 56 1026.3